Find Starlink 33746

NORAD ID: 63446 Int'l Des: 2025-069 Owner: SPXS Country: US Constellation: starlink operational
LEOCIRCULAR

現在のビュー

3D地球を読み込み中...

About Starlink 33746

Starlink 33746 (NORAD 63446) is a starlink constellation satellite (v2 mini) launched Apr 4, 2025 by SPXS of US. It operates in LEO, CIRCULAR orbit with a mass of 575.00 kg.

Starlink 33746について

説明を読み込み中...

次回通過

Passes for default location (London). Set your location on the main map for personalized predictions.

高度履歴

Loading altitude history...

軌道要素

1 63446U 25069P 26170.00002315 .00043642 00000-0 12967-2 0 9998
2 63446 53.1595 26.8472 0001407 84.7663 29.3197 15.34364545 5914
Epoch: Jun 19, 2026 • Age: 8 hours

現在のステータス

高度 481.8 km
速度 7.62 km/s
衛星直下点 -52.17°S, 115.47°W
打ち上げ日 Apr 4, 2025
運用期間 1.2 years
タイプ internet

技術仕様

分類 Payload
質量 575.00 kg
乾燥質量 530.00 kg
総質量 575.00 kg
長さ 0.30 m
直径 4.10 m
スパン 29.00 m
形状 Box + pan
製造者 SPXS
バスタイプ Starlink V2MO
フェーズステータス In Orbit
所有者/国 SPXS/US

Most Searched